Regional Weather Roundup
Issued by NWS

Home | Current Version | Previous Version | Text Only | Print | Product List | Glossary Off
Versions: 1 2 3 4 5 6 7 8 9 10 11 12 13 14 15 16 17 18 19 20 21 22 23 24 25 26 27 28 29 30 31 32 33 34 35 36 37 38 39 40 41 42 43 44 45 46 47 48 49 50

000
ASUS44 KMEG 290100
RWRTN
TENNESSEE HOURLY STATE WEATHER ROUNDUP
NATIONAL WEATHER SERVICE MEMPHIS TN
800 PM CDT THU MAY 28 2015

TNZ002-004-019-021-049-052-054-088>092-290200-
WEST TENNESSEE

CITY           SKY/WX    TMP DP  RH WIND       PRES   REMARKS
MEMPHIS INTL   PTCLDY    79  64  60 S7        30.06F
NWS MEMPHIS      N/A     78 N/A N/A MISG        N/A
JACKSON        CLEAR     75  66  73 CALM      30.09S
DYERSBURG      CLEAR     75  57  53 SE3       30.08S
PARIS          CLEAR     75  64  69 SW6       30.10S
LEXINGTON      CLEAR     73  70  88 CALM      30.10R
$$

TNZ008-025-027-028-033-062-065-066-290200-
NORTH MIDDLE TENNESSEE

CITY           SKY/WX    TMP DP  RH WIND       PRES   REMARKS
NASHVILLE      MOCLDY    78  66  66 CALM      30.12S
CLARKSVILLE    CLEAR     74  66  76 SE5       30.10S
COOKEVILLE     CLOUDY    72  66  83 S6        30.18R
CROSSVILLE     CLOUDY    71  59  65 S9G20     30.23R
$$

TNZ061-075-076-078-094-096-097-290200-
SOUTH MIDDLE TENNESSEE

CITY           SKY/WX    TMP DP  RH WIND       PRES   REMARKS
FAYETTEVILLE   MOCLDY   N/A N/A N/A MISG      30.17R
TULLAHOMA      MOCLDY    73  61  64 S14       30.18R
WINCHESTER     MOCLDY    68  64  88 S9        30.18S
MCMINNVILLE    MOCLDY    73  70  88 CALM      30.16S
COLUMBIA       MOCLDY    73  70  88 CALM      30.12S
SHELBYVILLE    CLOUDY    79  70  73 CALM      30.15R
$$

TNZ017-018-042-046-047-290200-
NORTHEAST TENNESSEE

CITY           SKY/WX    TMP DP  RH WIND       PRES   REMARKS
TRI CITIES     CLOUDY    69  65  86 CALM      30.22F
ELIZABETHTON   CLEAR     64  63  94 E6        30.23F
$$

TNZ012-013-036-069-073-074-290200-
CENTRAL EAST TENNESSEE

CITY           SKY/WX    TMP DP  RH WIND       PRES   REMARKS
KNOXVILLE      CLOUDY    78  65  63 S6        30.17R
OAK RIDGE      CLOUDY    80  65  59 CALM      30.19R
GATLINBURG       N/A     73  66  78 CALM      30.18R
$$

TNZ083-085-099-290200-
SOUTHEAST TENNESSEE

CITY           SKY/WX    TMP DP  RH WIND       PRES   REMARKS
CHATTANOOGA    CLOUDY    69  67  93 NW3       30.20R
$$

SKY/WX REPORTED AS FAIR MEANS FEW OR NO CLOUDS BELOW
12 THOUSAND FEET.




USA.gov is the U.S. government's official web portal to all federal, state and local government web resources and services.